This demonstration page uses our WeatherBlox Daily Observations layout. Learn more.

38.88101, -77.10428

Hourly Observations for June 17, 2015

Temp ( °F °C ) Dew Point ( °F °C ) Humidity (%) Winds ( mph kmh ) Pressure ( in mb ) Visibility ( mi km ) Precip ( " mm )
6:52 am 06:52 Partly Cloudy 78 25.6 66 18.9 67 67 N 7 11 30.09 1019 10 16.0934 0 0
7:52 am 07:52 Mostly Cloudy 78 25.6 65 18.3 64 64 NNE 7 11 30.11 1020 9 14.48406 0 0
8:52 am 08:52 Mostly Cloudy 80 26.7 63 17.2 56 56 NE 9 15 30.12 1020 10 16.0934 0 0
9:52 am 09:52 Mostly Cloudy 81 27.2 63 17.2 54 54 ENE 7 11 30.12 1020 10 16.0934 0 0
10:52 am 10:52 Mostly Cloudy 82 27.8 62 16.7 51 51 SE 6 9 30.12 1020 10 16.0934 0 0
11:52 am 11:52 Mostly Cloudy 82 27.8 64 17.8 55 55 SSW 5 7 30.12 1020 10 16.0934 0 0
12:52 pm 12:52 Cloudy with Light Rain 82 27.8 66 18.9 58 58 S 3 6 30.12 1020 10 16.0934 0 0.0254
1:52 pm 13:52 Cloudy 82 27.8 67 19.4 60 60 Calm 30.11 1020 10 16.0934 0 0.0254
2:52 pm 14:52 Cloudy with Light Rain 82 27.8 67 19.4 60 60 S 6 9 30.11 1020 8 12.87472 0 0.0254
3:37 pm 15:37 Cloudy 81 27 64 18 58 58 SW 12 19 30.12 1020 10 16.0934 0 0.0254
3:52 pm 15:52 Cloudy with Light Rain 80 26.7 67 19.4 64 64 SW 12 19 30.11 1020 10 16.0934 0 0.0254
4:13 pm 16:13 Cloudy 79 26 70 21 74 74 W 8 13 30.12 1020 10 16.0934 0 0.0254
4:25 pm 16:25 Cloudy with Light Rain 79 26 68 20 70 70 W 8 13 30.09 1019 10 16.0934 0 0.0254
4:36 pm 16:36 Cloudy 79 26 66 19 65 65 W 6 9 30.09 1019 10 16.0934 0 0
4:52 pm 16:52 Cloudy 79 26.1 66 18.9 65 65 WSW 6 9 30.09 1019 10 16.0934 0 0.0254
5:44 pm 17:44 Cloudy with Light Rain 79 26 64 18 61 61 Calm 30.09 1019 10 16.0934 0 0
5:52 pm 17:52 Cloudy with Light Rain 79 26.1 65 18.3 62 62 Calm 30.07 1018 10 16.0934 0 0.0254
6:11 pm 18:11 Cloudy 79 26 66 19 65 65 Calm 30.06 1018 10 16.0934 0 0.0254
6:52 pm 18:52 Cloudy 79 26.1 65 18.3 62 62 Calm 30.06 1018 10 16.0934 0 0.0254
7:52 pm 19:52 Cloudy 79 26.1 65 18.3 62 62 S 5 7 30.05 1018 10 16.0934 0 0
8:48 pm 20:48 Cloudy with Rain 79 26 66 19 65 65 SSW 5 7 30.06 1018 6 9.65604 0 0
8:52 pm 20:52 Cloudy with Rain 77 25 67 19.4 71 71 Calm 30.06 1018 5 8.0467 0.02 0.508
9:22 pm 21:22 Cloudy with Rain 75 24 66 19 74 74 Calm 30.06 1018 2.5 4.02335 0 0
9:24 pm 21:24 Cloudy with Heavy Rain 75 24 66 19 74 74 Calm 30.06 1018 3 4.82802 0 0
9:44 pm 21:44 Cloudy 75 24 68 20 78 78 E 6 9 30.06 1018 10 16.0934 0 0
9:52 pm 21:52 Mostly Cloudy 75 23.9 68 20 79 79 E 8 13 30.06 1018 10 16.0934 0.08 2.032
10:52 pm 22:52 Cloudy 75 23.9 68 20 79 79 Calm 30.04 1017 10 16.0934 0 0
11:27 pm 23:27 Cloudy with Light Rain 75 24 68 20 78 78 SE 6 9 30.06 1018 9 14.48406 0 0
11:52 pm 23:52 Cloudy with Light Rain 75 23.9 69 20.6 82 82 SE 6 9 30.04 1017 10 16.0934 0.02 0.508

Powered by AerisWeather